Tracking 29487 objects as of 12-Sep-2024
HD Live streaming from Space Station
objects crossing your sky now

FENGYUN 1C DEB

Track FENGYUN 1C DEB now!
10-day predictions


NORAD ID: 31073
Int'l Code: 1999-025BFT
Perigee: 797.8 km
Apogee: 869.2 km
Inclination: 99.2 °
Period: 101.4 minutes
Semi major axis: 7204 km
RCS: 0.0164 m2 (small)
Launch date: May 10, 1999
Source: People's Republic of China (PRC)
Launch site: Taiyaun Space Center, China (TSC)

Note: This is SATELLITE DEBRIS
Your satellite tracking list
Your tracking list is empty




NASA's NSSDC Master Catalog

Two Line Element Set (TLE):
1 31073U 99025BFT 24252.30261296  .00015137  00000-0  70772-2 0  9995
2 31073  99.2474  73.6701 0049568 154.1339 206.2329 14.19705770905901
Source of the keplerian elements: AFSPC